Weather History for DeLand, FL

Change the Weather History Date:

Thursday, November 1, 2012

  Actual Average Record
Temperature  
Mean Temperature 66 °F -  
Max Temperature 77 °F 79 °F 86 °F (2013)
Min Temperature 55 °F 57 °F 68 °F (2013)
Cooling Degree Days 1    
Growing Degree Days 16 (Base 50)    
Moisture  
Dew Point 57 °F    
Average Humidity 76    
Maximum Humidity 94    
Minimum Humidity 50    
Precipitation  
Precipitation 0.00 in - - ()
Sea Level Pressure  
Sea Level Pressure 30.00 in    
Wind  
Wind Speed 6 mph ()    
Max Wind Speed 13 mph    
Max Gust Speed 16 mph    
Visibility 9.2 miles    
Events      
Averages and records for this station are not official NWS values.
T = Trace of Precipitation, MM = Missing Value Source: Averaged Metar Reports

Daily Weather History Graph

Daily Weather History Graph

Search for Another Location

Airport:

Trip Planner

Search our weather history database for the weather conditions in past years. The results will help you decide how hot, cold, wet, or windy it might be!

Date:

Astronomy

Nov. 01, 2012 Rise Set
Actual Time 7:38 AM EDT 6:38 PM EDT
Civil Twilight 7:13 AM EDT 7:03 PM EDT
Nautical Twilight 6:45 AM EDT 7:31 PM EDT
Astronomical Twilight 6:17 AM EDT 7:59 PM EDT
Moon 8:44 PM EDT (11/1) 9:59 AM EDT (11/1)
Length of Visible Light 11h 49m
Length of Day
11h 00m
Waning Gibbous, 93% of the Moon is Illuminated
Nov 1
Waning Gibbous
Nov 6
Last Quarter
Nov 13
New
Nov 20
First Quarter
Nov 28
Full

Hourly Weather History & Observations

Time (EDT) Temp. Dew Point Humidity Pressure Visibility Wind Dir Wind Speed Gust Speed Precip Events Conditions
12:15 AM 57.2 °F 50.0 °F 77% 30.02 in 10.0 mi SW 8.1 mph - N/A   Clear
12:35 AM 59.0 °F 51.8 °F 77% 30.02 in 10.0 mi SW 9.2 mph - N/A   Clear
12:55 AM 57.2 °F 51.8 °F 82% 30.02 in 9.0 mi SW 8.1 mph - N/A   Clear
1:15 AM 57.2 °F 51.8 °F 82% 30.02 in 10.0 mi SW 8.1 mph - N/A   Clear
1:35 AM 57.2 °F 51.8 °F 82% 30.01 in 10.0 mi SW 6.9 mph - N/A   Clear
1:55 AM 59.0 °F 53.6 °F 82% 30.02 in 10.0 mi SW 6.9 mph - N/A   Clear
2:15 AM 59.0 °F 53.6 °F 82% 30.01 in 9.0 mi SW 6.9 mph - N/A   Clear
2:35 AM 59.0 °F 53.6 °F 82% 30.01 in 10.0 mi SW 6.9 mph - N/A   Clear
2:55 AM 59.0 °F 53.6 °F 82% 30.01 in 10.0 mi SW 6.9 mph - N/A   Clear
3:15 AM 57.2 °F 53.6 °F 88% 30.01 in 9.0 mi SW 8.1 mph - N/A   Clear
3:35 AM 57.2 °F 53.6 °F 88% 30.01 in 10.0 mi SW 8.1 mph - N/A   Clear
3:55 AM 57.2 °F 53.6 °F 88% 30.00 in 9.0 mi SW 6.9 mph - N/A   Clear
4:15 AM 57.2 °F 53.6 °F 88% 30.00 in 9.0 mi SW 6.9 mph - N/A   Clear
4:35 AM 57.2 °F 53.6 °F 88% 30.00 in 9.0 mi WSW 4.6 mph - N/A   Clear
4:55 AM 57.2 °F 55.4 °F 94% 30.00 in 9.0 mi SW 4.6 mph - N/A   Clear
5:15 AM 57.2 °F 53.6 °F 88% 30.00 in 9.0 mi Calm Calm - N/A   Clear
5:35 AM 55.4 °F 53.6 °F 94% 30.00 in 9.0 mi Calm Calm - N/A   Clear
5:55 AM 55.4 °F 53.6 °F 94% 30.00 in 9.0 mi SSW 5.8 mph - N/A   Clear
6:15 AM 55.4 °F 53.6 °F 94% 30.00 in 7.0 mi Calm Calm - N/A   Clear
6:35 AM 55.4 °F 53.6 °F 94% 30.00 in 7.0 mi SSW 5.8 mph - N/A   Clear
6:55 AM 55.4 °F 53.6 °F 94% 30.01 in 7.0 mi Calm Calm - N/A   Clear
7:35 AM 55.4 °F 53.6 °F 94% 30.01 in 6.0 mi Calm Calm - N/A   Clear
7:55 AM 55.4 °F 53.6 °F 94% 30.02 in 7.0 mi Calm Calm - N/A   Clear
8:15 AM 57.2 °F 55.4 °F 94% 30.02 in 7.0 mi Calm Calm - N/A   Clear
8:35 AM 59.0 °F 57.2 °F 94% 30.02 in 7.0 mi Calm Calm - N/A   Clear
8:55 AM 60.8 °F 57.2 °F 88% 30.03 in 9.0 mi SW 6.9 mph - N/A   Clear
9:15 AM 62.6 °F 57.2 °F 82% 30.03 in 9.0 mi WSW 5.8 mph - N/A   Clear
9:35 AM 64.4 °F 57.2 °F 77% 30.03 in 9.0 mi SW 6.9 mph - N/A   Clear
9:55 AM 66.2 °F 59.0 °F 78% 30.03 in 9.0 mi WSW 6.9 mph - N/A   Clear
10:15 AM 69.8 °F 59.0 °F 68% 30.04 in 9.0 mi WSW 5.8 mph - N/A   Clear
10:35 AM 71.6 °F 60.8 °F 69% 30.04 in 10.0 mi West 8.1 mph - N/A   Clear
10:55 AM 71.6 °F 59.0 °F 64% 30.03 in 9.0 mi West 8.1 mph - N/A   Clear
11:15 AM 73.4 °F 59.0 °F 61% 30.03 in 10.0 mi West 6.9 mph - N/A   Clear
11:35 AM 75.2 °F 57.2 °F 53% 30.03 in 10.0 mi West 8.1 mph - N/A   Clear
11:55 AM 75.2 °F 55.4 °F 50% 30.02 in 10.0 mi WSW 11.5 mph 16.1 mph N/A   Clear
12:15 PM 75.2 °F 57.2 °F 53% 30.01 in 10.0 mi West 11.5 mph - N/A   Clear
12:35 PM 75.2 °F 57.2 °F 53% 30.00 in 10.0 mi West 11.5 mph - N/A   Partly Cloudy
12:55 PM 75.2 °F 57.2 °F 53% 29.99 in 10.0 mi West 9.2 mph - N/A   Clear
1:15 PM 75.2 °F 60.8 °F 61% 29.98 in 10.0 mi WNW 9.2 mph - N/A   Partly Cloudy
1:35 PM 75.2 °F 59.0 °F 57% 29.98 in 9.0 mi WNW 8.1 mph - N/A   Scattered Clouds
1:55 PM 75.2 °F 60.8 °F 61% 29.96 in 9.0 mi West 9.2 mph - N/A   Scattered Clouds
2:15 PM 75.2 °F 59.0 °F 57% 29.95 in 10.0 mi WSW 9.2 mph - N/A   Clear
2:35 PM 75.2 °F 57.2 °F 53% 29.95 in 10.0 mi West 9.2 mph - N/A   Partly Cloudy
2:55 PM 75.2 °F 59.0 °F 57% 29.94 in 10.0 mi WSW 10.4 mph 16.1 mph N/A   Partly Cloudy
3:15 PM 77.0 °F 59.0 °F 54% 29.94 in 10.0 mi West 12.7 mph - N/A   Partly Cloudy
3:35 PM 75.2 °F 59.0 °F 57% 29.93 in 10.0 mi West 8.1 mph - N/A   Partly Cloudy
3:55 PM 73.4 °F 59.0 °F 61% 29.93 in 10.0 mi West 5.8 mph - N/A   Partly Cloudy
4:15 PM 75.2 °F 60.8 °F 61% 29.94 in 9.0 mi West 9.2 mph - N/A   Scattered Clouds
4:35 PM 75.2 °F 60.8 °F 61% 29.93 in 10.0 mi West 6.9 mph - N/A   Clear
4:55 PM 73.4 °F 60.8 °F 65% 29.93 in 9.0 mi WSW 8.1 mph - N/A   Clear
5:15 PM 75.2 °F 60.8 °F 61% 29.93 in 10.0 mi West 8.1 mph - N/A   Clear
5:35 PM 73.4 °F 60.8 °F 65% 29.94 in 10.0 mi West 8.1 mph - N/A   Partly Cloudy
5:55 PM 73.4 °F 60.8 °F 65% 29.94 in 10.0 mi WNW 6.9 mph - N/A   Scattered Clouds
6:15 PM 71.6 °F 60.8 °F 69% 29.95 in 9.0 mi WNW 9.2 mph - N/A   Partly Cloudy
6:35 PM 71.6 °F 60.8 °F 69% 29.96 in 10.0 mi WNW 5.8 mph - N/A   Clear
6:55 PM 69.8 °F 60.8 °F 73% 29.97 in 10.0 mi West 3.5 mph - N/A   Clear
7:15 PM 69.8 °F 60.8 °F 73% 29.97 in 10.0 mi Calm Calm - N/A   Clear
7:35 PM 66.2 °F 60.8 °F 83% 29.97 in 8.0 mi Calm Calm - N/A   Clear
7:55 PM 66.2 °F 60.8 °F 83% 29.97 in 9.0 mi Calm Calm - N/A   Clear
8:15 PM 64.4 °F 59.0 °F 83% 29.98 in 9.0 mi Calm Calm - N/A   Clear
8:35 PM 62.6 °F 57.2 °F 82% 29.99 in 9.0 mi Calm Calm - N/A   Clear
8:55 PM 62.6 °F 57.2 °F 82% 30.00 in 9.0 mi Calm Calm - N/A   Clear
9:15 PM 64.4 °F 59.0 °F 83% 30.00 in 9.0 mi West 5.8 mph - N/A   Clear
9:35 PM 64.4 °F 59.0 °F 83% 30.01 in 9.0 mi West 5.8 mph - N/A   Clear
9:55 PM 62.6 °F 59.0 °F 88% 30.02 in 8.0 mi Calm Calm - N/A   Clear
10:15 PM 62.6 °F 57.2 °F 82% 30.02 in 9.0 mi Calm Calm - N/A   Clear
10:35 PM 62.6 °F 57.2 °F 82% 30.03 in 9.0 mi Calm Calm - N/A   Clear
10:55 PM 60.8 °F 57.2 °F 88% 30.03 in 9.0 mi Calm Calm - N/A   Clear
11:15 PM 60.8 °F 55.4 °F 82% 30.03 in 9.0 mi Calm Calm - N/A   Clear
11:35 PM 60.8 °F 55.4 °F 82% 30.03 in 9.0 mi West 4.6 mph - N/A   Clear
11:55 PM 60.8 °F 55.4 °F 82% 30.04 in 8.0 mi Calm Calm - N/A   Clear